Theta_e
313 313 314 315 318 321 323 325 322 320 322 316 317 319 317 320 321 320 320 320 320 320 319 319 319 319 319 319 319 318 318 318 318 318 320 322 318 318 319 318 320 321 327 334 332 334 336 337 338 339 340 339 340 339 339 339 339 339 338 337 334 332 333 333 334 335 335 335 333 327 324 323 322 323 322 323 323 323 321 321 321 325 329 330 333 335 334 333 332 331 329 326 323 321 320 319 319
313 313 314 316 319 325 326 326 320 317 318 315 317 318 317 320 321 320 319 319 320 319 319 319 319 319 319 319 319 319 318 318 318 319 320 321 321 319 318 319 319 322 330 336 334 334 337 338 337 336 337 338 339 339 339 339 339 339 338 336 333 333 334 334 335 335 335 336 335 328 323 323 322 323 323 323 323 321 321 321 321 325 329 331 333 333 333 332 330 330 329 329 327 325 323 320 318
313 313 315 319 322 325 326 323 319 316 315 314 316 318 319 320 320 320 319 319 319 319 319 319 319 319 319 320 319 319 318 318 318 319 321 322 325 320 317 319 318 323 330 336 337 334 337 339 337 335 335 335 337 339 338 338 338 338 337 335 333 333 334 335 335 335 336 336 336 329 323 322 323 323 323 323 322 321 320 321 322 326 330 331 332 331 330 329 328 329 329 329 328 326 323 320 318
313 315 317 323 325 324 324 322 320 317 314 314 315 318 320 320 319 320 320 319 319 319 319 320 320 319 320 320 318 319 318 319 319 319 322 319 320 319 317 319 318 321 326 333 338 336 338 338 336 335 334 333 335 337 338 338 338 337 336 335 333 332 333 333 333 334 336 336 335 330 325 323 323 323 323 323 322 321 320 321 324 326 330 331 331 329 328 327 328 328 328 328 326 324 321 316 314
316 318 320 324 327 324 323 321 319 318 315 316 315 318 320 319 319 320 320 319 319 319 319 320 319 318 319 319 319 319 318 319 319 319 322 318 315 317 317 318 319 321 323 331 338 338 337 337 335 335 335 334 334 336 337 336 337 337 335 335 333 332 333 330 330 333 334 335 333 329 326 324 324 324 324 324 324 323 321 322 325 326 329 331 330 329 327 324 323 322 323 323 321 319 316 313 311
319 321 321 322 325 323 322 318 317 317 318 319 317 318 319 319 320 319 320 319 318 318 318 319 319 319 319 318 318 318 317 318 320 319 319 317 315 316 317 318 319 321 322 329 337 338 337 335 334 335 335 334 334 335 335 335 336 336 335 335 333 333 333 329 328 332 332 333 331 328 325 324 325 326 326 326 327 325 321 323 325 326 328 330 329 328 326 320 317 314 313 313 313 312 311 310 310
321 323 322 322 322 322 322 318 316 317 318 320 318 318 319 319 319 319 320 319 318 317 317 318 318 319 318 318 318 317 317 317 319 319 316 315 315 316 316 317 319 321 323 326 334 337 335 333 332 334 335 333 334 334 334 335 335 336 336 335 333 334 334 329 327 330 331 330 328 327 325 327 328 327 326 327 329 326 322 324 325 325 327 328 328 326 321 316 314 312 309 309 309 309 309 310 310
321 325 324 324 323 322 322 318 318 319 317 319 319 319 319 319 319 319 319 318 318 318 317 318 317 318 318 318 320 317 317 317 318 317 315 315 315 316 315 317 319 321 323 324 332 335 330 328 329 332 333 332 332 334 333 334 336 335 335 334 333 334 334 331 327 329 330 328 327 326 327 329 329 327 326 327 329 327 324 325 325 326 326 326 325 322 316 315 316 312 308 308 309 309 309 310 309
321 323 323 324 323 320 320 318 319 319 318 318 319 319 319 319 319 319 318 318 317 318 317 317 317 317 317 318 320 318 317 317 317 316 315 315 315 316 315 316 317 319 322 322 329 332 325 325 327 327 330 331 331 332 333 334 335 335 334 334 333 333 333 332 330 329 328 327 327 327 328 329 328 326 325 327 328 327 327 326 326 326 326 325 323 318 315 318 318 312 308 308 309 309 309 310 307
322 322 323 324 321 318 318 317 319 318 318 319 319 319 319 318 318 319 318 318 317 318 317 317 318 317 317 318 319 317 315 316 317 316 315 315 315 315 315 315 316 317 319 320 324 327 324 323 326 326 327 329 331 331 332 332 334 335 334 334 333 333 332 332 331 328 327 328 327 327 328 328 328 326 326 328 329 328 328 329 328 327 326 324 321 318 318 321 320 315 310 307 308 309 309 307 305
323 322 323 322 318 316 316 317 319 320 319 318 319 319 318 318 318 318 319 318 318 318 317 317 318 317 317 318 317 315 314 315 316 315 315 315 315 315 315 315 315 315 316 318 319 322 323 322 324 325 326 327 329 331 332 332 334 334 335 334 334 333 331 331 331 328 327 327 327 327 326 327 327 328 328 328 330 331 331 331 330 329 328 326 323 323 323 323 323 318 312 308 306 308 307 305 304
322 322 322 320 318 317 318 319 319 319 319 318 319 318 317 318 318 319 319 319 318 318 318 317 317 317 318 318 317 315 314 315 315 315 314 314 315 315 315 315 315 315 314 315 316 318 320 320 322 323 324 326 327 330 331 332 334 334 334 335 334 333 332 331 330 329 327 327 327 326 327 328 328 329 330 328 328 331 332 332 331 331 331 330 329 329 327 324 325 322 317 311 306 306 306 304 303
321 323 321 320 320 320 319 319 319 320 319 319 318 317 316 317 318 319 319 319 318 319 318 317 317 317 318 318 317 316 314 315 314 315 315 315 315 315 315 315 315 316 315 315 315 315 317 318 319 320 321 324 325 328 330 331 332 333 333 334 334 333 333 332 331 330 328 327 327 327 327 328 328 328 329 329 328 329 331 332 332 332 332 332 332 331 329 327 327 324 319 314 308 305 305 304 304
321 322 321 321 321 320 320 320 320 319 318 319 318 317 316 318 318 318 318 319 318 318 316 316 316 317 317 317 317 316 315 314 314 314 314 315 315 315 315 315 315 315 315 315 315 314 315 315 317 318 319 322 324 325 328 329 330 331 332 333 332 332 333 332 331 331 329 328 328 327 326 327 328 327 327 329 329 328 330 332 332 332 332 331 331 331 330 329 328 324 320 316 310 305 304 304 303
320 321 319 321 319 318 320 321 320 318 318 319 317 317 317 317 317 317 318 318 318 316 316 316 316 317 317 317 318 316 315 314 315 314 314 315 315 316 315 315 315 315 316 315 315 315 315 315 315 316 317 321 326 329 329 329 330 330 331 332 332 332 333 331 330 330 329 329 329 328 327 327 327 326 325 326 327 328 328 330 330 331 331 330 331 331 330 329 327 325 322 318 312 306 305 304 303
318 320 320 319 317 317 319 321 320 318 319 319 317 317 318 317 317 318 317 316 317 316 316 316 315 316 316 316 316 315 315 314 314 314 314 314 314 315 316 316 315 315 315 315 316 316 316 316 315 315 315 318 326 332 333 332 330 330 330 330 331 332 333 331 330 330 329 328 328 328 328 327 327 327 326 324 324 324 325 327 329 330 330 330 331 330 329 328 327 326 324 320 315 310 306 304 304
315 320 320 317 317 317 318 319 319 318 319 319 317 317 318 318 317 317 316 316 317 317 316 316 315 315 315 315 315 314 314 314 314 314 314 314 314 315 315 315 316 315 315 315 315 315 316 316 316 316 315 314 318 325 331 334 333 331 330 329 330 332 333 333 332 331 330 328 327 327 328 327 328 329 329 328 326 324 323 325 327 328 329 329 329 327 327 327 327 325 324 321 320 316 309 305 304
318 321 318 316 317 318 319 319 319 320 319 319 318 318 318 318 318 317 317 317 317 317 316 315 314 314 314 314 314 314 314 314 314 313 314 314 314 315 315 315 316 316 315 315 315 315 315 315 316 316 316 316 315 317 324 331 332 332 332 330 329 330 331 333 333 331 330 329 328 328 327 327 328 330 331 330 330 327 323 323 324 326 326 327 326 324 324 326 326 324 323 322 321 320 314 308 305
320 321 317 318 319 319 320 320 320 320 320 319 319 318 318 318 318 317 317 318 318 318 317 315 314 314 314 314 313 313 313 313 313 313 313 314 313 314 314 314 315 315 316 315 315 315 315 315 316 316 316 316 317 317 318 324 330 332 332 331 330 329 329 331 331 331 330 329 330 328 327 328 329 330 330 328 330 329 325 323 324 324 324 325 324 322 322 325 325 324 323 321 320 320 318 312 309
320 320 319 320 319 319 319 320 319 319 319 319 319 317 318 318 318 317 318 318 318 318 318 316 316 315 314 313 313 312 312 313 313 313 313 313 313 313 313 313 314 314 315 315 315 315 315 315 315 315 316 316 317 318 317 321 329 332 331 332 332 332 330 329 331 331 331 330 330 330 329 330 330 330 328 326 328 328 326 323 323 324 325 325 322 321 323 325 324 323 323 323 321 321 320 317 314
321 320 320 318 318 319 318 319 318 317 318 318 319 317 318 318 317 317 317 317 319 319 317 316 316 314 313 313 312 312 312 312 312 312 312 312 313 312 313 313 313 313 314 314 315 315 315 315 315 315 315 316 316 318 319 320 326 330 331 331 332 332 330 330 332 333 332 330 330 331 330 329 330 330 328 328 328 328 326 324 325 326 327 325 322 322 325 325 324 324 325 325 324 324 323 320 317
320 319 319 318 318 319 318 318 317 316 317 317 318 317 317 317 316 317 317 317 318 317 315 315 314 314 313 313 312 312 312 312 312 312 312 312 312 312 313 312 313 313 313 313 313 314 314 313 314 314 314 315 315 317 319 319 323 329 331 331 331 330 330 331 332 332 332 331 331 331 331 331 329 328 329 329 329 328 328 327 328 329 328 326 325 324 326 327 326 326 327 326 326 324 323 322 320
319 319 318 318 318 319 318 317 317 316 317 317 318 317 316 316 317 317 317 317 316 314 314 314 314 313 313 312 312 312 312 311 311 311 312 312 312 312 312 312 312 312 313 313 313 313 313 313 313 313 314 314 315 316 318 321 325 329 330 330 330 329 330 331 331 331 331 331 332 331 330 331 329 328 329 329 328 328 329 329 329 330 329 328 327 326 327 327 326 327 328 327 326 324 323 323 322
319 319 318 318 317 318 318 317 316 315 316 317 316 315 315 316 316 316 316 315 314 314 313 313 313 313 312 312 312 312 311 311 311 311 311 311 312 312 312 312 312 312 312 312 313 313 313 313 313 314 313 313 315 315 318 324 328 329 329 330 330 329 329 330 329 328 330 333 333 332 331 330 329 329 330 329 328 329 329 329 329 330 329 328 327 327 327 326 326 328 327 327 326 325 324 324 324
319 318 318 317 317 317 317 316 315 315 316 315 314 315 316 316 315 315 316 314 313 313 312 312 312 312 311 312 312 312 312 311 311 311 311 311 311 312 312 312 312 312 312 312 312 312 312 313 313 314 314 313 314 315 317 323 327 328 328 328 329 329 329 329 325 324 329 332 331 332 333 332 329 329 331 330 329 330 330 330 330 330 329 328 327 325 325 324 327 329 327 326 327 325 325 325 324
318 318 317 317 317 317 316 316 316 315 315 315 314 315 316 315 314 315 315 313 312 312 311 311 311 310 311 311 311 312 311 312 311 311 311 311 312 312 312 312 312 312 312 312 312 312 312 312 313 313 314 314 314 316 317 319 323 324 324 324 324 325 327 327 325 327 329 328 327 328 330 330 329 330 333 332 329 329 330 331 331 330 329 327 326 325 324 324 326 327 326 327 327 325 325 324 324
316 316 316 317 317 317 316 316 316 315 315 314 314 316 316 314 314 316 314 312 312 310 311 311 310 310 310 311 311 311 311 311 311 311 311 312 312 312 312 311 311 312 311 312 312 312 312 312 313 314 314 314 314 316 317 317 319 320 321 321 321 323 324 323 326 331 332 329 329 329 329 331 331 332 333 333 331 330 330 331 332 330 329 328 327 327 326 326 325 324 325 326 326 325 325 324 323
315 316 316 317 317 317 316 316 316 315 315 315 314 316 316 313 314 316 313 311 311 309 310 310 309 310 310 311 311 310 310 310 310 311 311 311 312 312 312 311 311 311 311 311 312 312 312 312 313 314 315 315 315 317 317 320 322 321 322 322 322 324 325 322 323 328 331 330 330 329 329 330 332 332 332 332 331 330 330 330 330 328 328 328 327 326 324 324 323 323 324 325 325 326 325 324 323
315 315 317 318 318 318 318 317 316 315 316 314 314 316 316 315 315 314 312 310 310 309 310 309 309 310 310 310 310 310 310 310 310 310 311 311 311 311 311 310 310 310 310 311 311 311 312 312 313 315 316 316 316 317 317 320 324 323 323 323 322 324 324 323 322 323 325 326 325 325 326 328 330 330 330 330 329 329 329 329 328 328 326 325 324 324 323 323 323 323 324 325 326 326 325 324 323
316 316 317 318 319 319 318 317 315 315 315 314 315 316 318 318 315 312 311 310 309 310 310 309 309 309 309 309 309 311 311 310 310 309 310 310 310 310 310 310 310 310 310 310 311 311 312 313 315 315 317 318 318 317 317 319 322 322 323 322 322 322 323 323 322 321 321 321 323 324 325 327 328 329 330 330 329 329 328 327 326 325 324 323 323 323 323 324 324 324 324 325 326 325 324 323 322
317 318 317 318 319 318 317 316 315 316 314 313 315 316 319 318 314 311 310 310 310 311 312 310 309 308 308 309 309 311 311 310 310 309 309 309 309 309 309 309 309 309 310 310 311 312 313 315 317 318 319 319 319 319 319 319 320 321 322 322 322 323 323 323 321 320 320 321 323 324 325 325 326 327 328 328 326 326 325 325 324 324 323 322 323 323 323 324 325 325 325 325 324 324 323 323 321
318 317 318 320 319 318 318 317 316 316 314 313 315 316 319 318 313 311 310 309 310 312 313 311 310 308 308 308 309 309 310 310 309 309 309 309 308 308 308 308 309 309 310 311 312 314 315 316 318 320 321 321 320 320 321 321 321 322 322 323 322 322 322 321 321 321 321 322 323 324 324 324 325 326 326 325 324 323 323 323 323 323 322 321 322 323 323 323 324 324 323 323 322 322 322 322 321
319 318 318 320 320 320 319 316 316 317 315 315 315 317 320 317 313 311 310 310 311 312 314 312 310 309 308 308 308 308 308 309 309 309 309 308 308 308 308 308 308 309 311 312 313 315 317 318 319 320 321 321 321 321 322 322 322 322 322 322 321 321 320 320 321 322 322 322 322 323 323 323 324 324 324 324 324 323 323 323 323 323 322 322 323 323 323 323 323 323 322 321 321 320 321 322 322
320 319 319 319 320 319 319 317 316 316 315 316 316 316 318 317 314 311 310 310 311 312 313 313 311 309 308 308 308 307 307 307 308 308 308 308 308 307 308 308 308 309 312 314 315 316 318 319 320 320 320 320 320 321 321 321 321 321 321 320 320 319 319 319 320 321 322 322 321 321 322 323 323 323 323 323 323 323 323 323 323 323 323 323 323 323 323 323 323 323 322 321 321 321 321 321 321
320 320 319 320 320 319 319 319 317 316 316 317 317 317 318 318 316 313 311 310 311 312 313 313 312 310 309 308 307 307 306 306 307 308 308 307 307 307 308 308 309 311 313 315 316 316 317 318 319 319 319 319 318 319 319 319 319 319 319 319 318 318 318 318 318 319 320 321 321 321 321 322 322 322 322 322 321 321 321 321 322 322 322 322 322 321 321 321 321 321 321 321 320 320 319 319 318
320 320 319 319 320 319 320 319 316 316 317 317 318 318 319 319 318 315 312 311 312 312 313 313 311 310 309 308 307 307 306 306 307 307 307 307 307 307 308 308 309 312 314 315 315 316 316 316 316 317 316 316 316 317 317 316 316 316 316 317 316 316 316 316 316 315 315 317 319 319 319 317 316 317 317 317 317 316 317 317 318 318 318 317 317 317 317 318 319 319 319 318 318 317 316 316 316
319 320 319 319 319 319 320 319 316 315 317 318 319 319 319 320 320 318 315 312 312 313 313 313 311 310 309 308 308 307 306 306 307 307 306 306 306 306 308 309 310 313 314 313 314 315 315 315 315 315 314 315 315 315 314 314 314 313 313 314 313 313 313 312 312 311 311 312 314 314 312 310 309 309 309 309 309 309 310 310 310 310 309 309 309 309 311 312 313 313 312 311 311 310 310 310 310
318 319 319 319 319 320 320 318 315 315 316 318 319 319 319 319 319 320 317 313 313 314 314 314 312 310 309 308 308 307 306 307 307 306 305 305 306 307 308 309 310 313 314 313 314 314 313 314 315 315 315 315 315 314 313 312 311 312 311 311 310 309 309 309 308 308 307 307 307 307 307 306 306 306 305 306 305 306 306 305 305 305 305 305 305 305 305 306 305 306 305 305 305 304 304 304 304
318 319 319 320 320 320 320 317 314 314 315 317 319 318 319 319 318 320 319 315 315 315 314 314 313 311 310 309 308 307 306 306 306 305 305 305 306 307 308 309 310 312 313 314 315 315 314 315 315 315 315 315 315 313 312 310 310 310 309 308 307 307 306 306 306 305 305 305 305 305 305 305 305 304 304 304 304 304 304 304 304 303 303 303 303 303 303 303 302 302 302 302 302 301 301 301 301
318 319 319 319 320 321 320 317 314 314 314 317 318 317 318 318 318 319 319 316 315 313 312 312 311 310 310 308 307 306 305 305 305 305 304 304 306 307 308 309 310 311 313 314 314 315 314 315 314 315 315 314 313 311 310 309 308 308 307 306 306 305 305 305 305 304 304 304 304 304 303 303 303 303 303 302 302 302 302 302 302 301 301 301 301 301 300 300 300 300 299 299 300 298 297 297 297
319 319 319 319 320 320 319 318 315 314 315 315 316 317 319 320 320 320 316 312 311 310 309 309 309 309 309 308 307 306 305 305 304 304 304 304 306 307 307 308 310 311 313 314 314 314 314 314 313 313 313 311 310 308 307 307 306 306 305 305 305 304 304 304 304 303 303 303 302 302 302 302 302 301 301 301 301 301 300 300 300 299 299 299 299 298 298 297 297 297 296 296 296 295 294 294 294
320 320 320 319 320 320 319 319 317 318 319 316 316 321 322 321 322 321 315 311 312 310 309 309 309 308 307 306 306 305 304 304 303 303 303 304 305 306 307 308 309 311 313 314 314 314 313 313 312 310 309 308 307 306 306 305 305 304 304 304 304 303 303 303 303 302 302 302 301 301 301 301 300 300 300 299 299 299 299 298 298 297 297 297 296 296 296 295 295 295 294 294 294 293 293 292 292
321 321 319 318 319 319 319 318 318 321 322 317 315 320 323 321 321 321 315 313 313 311 309 310 309 308 307 306 305 304 304 303 302 303 303 304 305 306 307 308 309 310 312 313 313 312 311 309 308 307 306 305 305 305 304 304 304 304 303 303 303 302 302 302 301 301 301 301 300 300 300 299 299 298 298 298 297 297 297 296 296 296 295 295 295 294 294 294 294 293 293 293 293 292 292 292 291
321 320 318 318 318 319 319 319 319 320 321 317 315 318 321 321 321 320 316 315 316 313 311 310 310 309 307 306 306 304 303 303 302 303 304 305 306 306 307 307 309 310 311 311 310 309 307 306 305 305 304 304 304 303 303 303 303 302 302 301 301 301 301 301 300 300 300 300 299 299 298 298 297 297 296 296 296 295 295 295 294 294 294 294 294 293 293 293 292 292 292 292 292 291 291 291 290
320 316 316 317 317 319 319 319 320 319 320 320 318 318 320 321 321 320 318 317 319 318 315 312 310 309 307 306 306 304 303 302 303 304 304 305 306 306 307 307 308 309 309 308 307 306 305 304 304 303 303 303 302 302 302 302 301 301 301 300 300 300 300 300 300 299 299 298 298 297 296 296 295 295 295 294 294 294 294 294 293 293 293 293 293 293 292 292 291 291 291 291 291 290 290 290 290
317 315 316 316 316 317 318 319 320 319 319 321 320 319 321 322 321 320 319 318 319 320 318 314 311 308 307 306 305 303 302 302 303 304 305 305 305 306 306 307 308 308 307 305 305 304 304 303 302 302 302 302 302 301 301 300 300 300 300 300 300 299 299 299 299 298 298 297 296 296 295 295 294 294 294 293 293 293 293 293 292 292 292 292 292 291 291 291 291 291 290 290 290 289 289 289 289
315 316 317 317 317 316 317 317 318 319 321 321 320 319 320 322 322 320 320 318 319 319 316 313 310 308 307 306 304 303 302 302 303 304 304 305 305 305 306 306 306 306 305 304 303 303 302 302 302 301 301 301 301 300 300 300 299 299 299 299 299 299 299 298 298 297 297 296 295 295 294 294 293 293 293 292 292 292 292 292 291 291 291 291 291 290 290 290 290 289 289 289 289 289 289 289 288
316 317 318 319 319 317 317 318 317 321 324 321 319 319 320 322 322 320 320 317 316 316 315 312 310 308 307 305 304 302 302 302 303 304 305 305 305 305 306 305 305 304 304 303 302 302 301 301 301 301 301 300 300 300 299 299 299 299 298 298 298 298 298 297 297 297 296 295 295 294 294 293 293 292 292 292 292 292 291 291 291 290 290 290 290 290 289 289 289 289 289 288 288 288 288 288 288
316 317 318 321 322 320 321 321 318 321 322 316 314 318 321 321 320 320 320 316 313 313 313 312 310 308 307 305 304 302 302 303 303 304 305 305 305 305 305 304 304 303 303 302 301 301 301 301 301 301 300 300 300 299 299 299 298 298 298 298 298 298 297 297 296 296 295 295 294 294 293 293 293 292 292 292 292 291 291 290 290 290 290 289 289 289 289 288 288 288 288 288 288 288 288 288 288
315 318 319 322 324 325 325 324 322 323 319 312 312 316 319 319 318 319 318 314 310 310 309 310 310 308 306 305 303 302 302 303 303 304 305 305 305 305 304 303 303 302 302 301 301 301 301 301 300 300 300 300 299 299 298 298 298 298 298 298 297 297 297 296 296 295 295 294 294 293 293 293 293 292 292 292 291 291 291 290 290 289 289 289 289 289 288 288 288 288 288 288 288 288 288 288 288
315 318 319 321 324 326 327 325 324 324 318 312 313 316 318 318 316 314 312 308 307 306 306 307 308 307 306 304 303 302 302 302 303 304 304 305 304 303 303 302 302 301 301 301 301 301 300 300 300 300 299 299 299 299 298 298 298 298 298 297 297 297 296 296 295 295 294 294 294 293 293 293 292 292 292 291 291 291 290 290 290 289 289 289 289 288 288 288 288 288 288 288 288 288 288 288 288
316 317 319 321 321 323 323 320 318 317 317 314 314 316 318 317 314 310 307 307 306 305 305 305 306 306 305 304 303 302 302 302 303 303 304 304 303 302 302 301 301 301 301 301 301 300 300 300 300 299 299 299 299 298 298 298 298 298 297 297 297 296 296 296 295 295 294 294 294 293 293 293 292 292 292 291 291 291 290 290 289 289 289 289 289 288 288 289 289 289 289 289 289 289 289 289 289
317 317 319 318 317 319 321 319 315 314 319 320 316 315 316 316 315 310 307 307 306 305 306 306 306 306 305 304 303 302 302 302 303 303 303 303 302 302 301 301 301 301 301 301 300 300 300 300 299 299 299 299 298 298 298 297 297 297 297 297 297 296 296 295 295 295 294 294 294 293 293 293 292 292 292 291 291 290 290 289 289 289 289 289 289 289 289 289 289 289 289 289 289 289 289 289 289
316 317 318 316 315 316 318 320 319 319 322 322 318 318 318 318 318 313 309 309 307 306 306 306 306 305 305 305 303 303 302 302 303 303 303 302 302 301 301 301 301 301 301 301 300 300 299 299 299 298 298 298 298 298 298 297 297 297 297 297 296 296 296 295 295 294 294 294 294 294 293 293 292 292 292 291 291 290 290 289 289 289 289 289 289 289 289 289 289 289 289 289 289 289 289 289 288
314 315 316 316 318 318 318 320 322 323 324 323 320 319 318 319 318 314 313 313 311 307 306 306 306 305 305 305 304 303 302 302 302 302 302 302 301 301 301 301 301 301 300 300 300 299 299 299 298 298 298 298 298 298 297 297 297 297 297 296 296 296 295 295 294 294 294 294 294 294 293 293 292 292 291 291 290 289 289 289 289 289 289 289 289 289 289 289 289 289 289 289 289 289 289 288 288
311 312 315 316 318 318 319 320 320 322 323 323 323 321 319 319 318 316 316 315 313 310 307 306 307 306 305 305 304 304 303 302 303 303 302 302 302 302 302 302 301 301 300 300 300 299 299 298 298 298 297 297 297 297 297 297 296 296 296 296 296 296 295 294 294 294 294 294 294 293 293 293 292 291 291 290 289 289 289 289 289 289 289 289 289 289 289 289 289 289 288 288 288 288 288 288 288
312 313 315 316 316 315 316 318 319 319 321 323 323 322 320 318 317 318 317 316 315 312 309 308 308 307 306 306 305 304 303 303 304 303 303 303 302 302 302 301 301 300 300 300 299 299 298 298 298 298 297 297 297 297 297 296 296 296 295 295 295 295 295 294 294 294 294 294 293 293 293 292 291 290 290 289 289 289 289 289 289 289 289 289 289 288 288 288 288 288 288 288 288 288 288 288 287
314 314 315 316 316 316 317 320 319 318 319 321 321 323 321 316 314 315 316 317 316 313 311 309 309 308 307 306 305 304 304 304 305 304 304 303 302 302 302 301 301 300 300 299 299 298 298 298 297 297 297 297 296 296 296 296 295 295 295 294 294 294 294 294 293 293 293 293 293 292 292 291 290 290 289 289 289 289 289 289 289 289 289 288 288 288 288 288 287 287 287 287 287 287 287 287 287
Wind_Speed
1 1 1 1 2 2 1 3 3 2 1 4 3 2 5 4 2 2 4 3 3 6 6 4 4 5 5 4 6 10 12 12 10 6 5 5 4 2 1 2 2 4 11 13 9 14 15 12 12 11 12 10 9 8 7 7 6 5 3 2 1 1 0 0 0 2 3 4 5 5 6 8 7 7 7 7 7 7 7 5 3 3 3 3 3 4 5 6 8 7 7 7 7 7 7 7 7
1 2 2 2 4 1 1 3 2 2 2 4 3 3 6 2 2 4 7 6 6 6 3 3 3 3 3 1 1 4 11 13 12 11 9 6 5 3 1 2 3 6 12 13 9 13 15 13 12 10 11 11 10 8 7 6 6 5 3 2 1 1 0 1 1 2 3 4 4 5 6 7 6 6 6 6 7 7 6 4 2 3 3 2 2 3 4 6 7 8 8 6 6 7 7 8 7
3 3 4 3 2 2 2 4 3 2 3 4 4 5 3 2 5 7 8 7 7 4 2 1 0 1 3 2 1 3 9 11 10 9 9 6 3 2 2 2 2 6 10 12 9 11 13 13 13 10 10 10 10 9 8 7 6 5 3 2 1 1 1 1 1 2 3 4 3 4 5 7 6 5 5 6 7 7 5 3 2 2 2 1 1 2 5 7 8 8 8 7 6 7 8 8 8
4 4 5 3 2 4 4 3 2 2 2 3 4 5 2 4 7 7 7 7 6 4 2 0 1 2 4 3 4 4 9 10 9 7 7 5 4 3 4 3 2 5 9 11 9 9 11 13 14 12 9 9 10 9 8 7 6 5 3 2 1 1 1 1 1 2 2 3 3 3 5 6 6 5 5 7 8 7 5 2 2 2 1 1 2 3 6 7 7 7 7 6 7 8 9 9 8
6 5 5 2 4 2 2 2 2 2 3 2 4 6 3 6 6 6 7 5 4 4 3 2 2 3 4 7 5 3 6 5 7 6 6 4 5 7 6 5 3 4 7 10 9 8 10 12 15 14 10 9 10 10 9 8 7 6 4 3 2 1 2 1 2 2 1 3 2 2 3 5 6 5 6 8 8 7 5 3 2 2 2 1 3 4 6 7 7 7 7 7 8 9 9 9 8
6 4 4 1 2 1 2 2 1 1 5 4 4 7 5 6 5 5 6 5 4 4 4 3 2 3 4 8 7 7 6 3 4 3 4 5 5 8 7 7 5 5 7 9 9 8 9 11 15 15 11 10 10 10 10 8 8 7 5 4 3 3 3 1 2 3 2 3 2 2 3 5 5 5 6 8 8 7 5 3 2 2 2 2 4 5 8 9 10 10 9 9 9 9 8 7 6
5 3 2 2 2 2 4 1 1 3 4 5 5 7 6 7 4 3 5 5 3 3 4 4 3 0 5 5 5 8 6 3 3 2 5 5 6 8 9 9 7 6 7 9 9 8 10 10 13 14 11 10 10 10 10 9 8 7 6 4 4 4 4 1 1 3 3 3 3 3 3 3 4 4 5 6 6 7 6 4 2 1 1 3 4 6 9 10 12 13 12 10 9 8 7 5 5
5 2 2 3 2 2 3 2 3 3 4 4 5 7 7 6 3 2 3 3 3 4 4 4 2 3 5 4 3 6 5 4 4 5 5 5 7 8 9 9 9 9 8 9 9 9 11 10 11 12 11 10 10 10 10 9 9 7 7 5 5 4 4 3 1 2 2 2 3 3 2 2 3 3 4 4 5 6 6 4 3 1 1 3 4 6 8 10 12 13 12 11 9 7 5 4 3
2 0 3 3 1 2 1 3 3 3 5 4 5 7 6 4 1 0 3 5 4 4 4 5 4 3 5 5 7 6 5 5 5 6 6 6 7 7 9 8 9 11 10 10 9 8 9 10 11 11 10 9 9 10 10 10 9 8 7 6 6 5 5 4 1 2 2 2 2 2 2 1 2 2 2 3 3 4 5 4 2 1 2 3 5 6 8 9 12 13 12 11 9 6 4 3 2
2 2 2 3 2 3 2 2 3 4 6 4 5 7 5 3 2 0 2 5 4 4 5 3 3 3 4 5 8 5 5 5 4 6 5 5 6 6 8 8 8 9 11 11 10 8 8 11 11 11 11 10 10 10 10 9 10 9 8 7 6 6 6 5 2 1 2 2 2 1 1 0 1 2 1 2 2 3 3 2 1 1 3 5 6 8 8 9 12 13 12 11 9 6 3 2 1
3 2 2 3 3 3 3 3 4 4 6 5 5 6 5 3 2 2 1 4 3 3 4 1 1 3 2 4 7 4 4 4 3 4 4 4 4 4 6 7 7 7 8 9 10 9 9 11 12 12 11 11 11 10 10 10 10 10 9 8 7 7 6 6 4 2 2 2 2 2 1 1 1 2 2 2 2 2 1 1 0 1 3 6 7 8 8 9 11 13 13 12 11 7 3 1 1
3 3 3 4 3 2 1 3 4 5 6 6 7 6 4 3 3 3 2 3 3 3 5 3 2 2 3 4 7 5 3 2 2 2 3 3 2 3 3 4 5 5 5 6 7 9 9 11 12 12 12 12 12 12 12 11 12 11 10 10 8 7 7 6 5 3 3 3 3 3 2 2 2 2 3 4 3 2 1 1 1 2 4 6 7 8 9 9 12 14 15 14 12 8 3 2 2
3 1 4 3 1 1 1 3 4 5 5 5 7 6 3 3 2 1 1 2 2 2 5 5 2 2 3 4 9 6 1 1 1 2 3 4 4 4 3 3 3 3 4 4 5 6 8 10 11 12 13 13 13 13 13 14 14 12 12 12 11 10 8 7 7 5 5 5 5 4 4 4 3 3 4 4 5 4 3 3 3 4 5 6 7 10 11 10 13 15 16 15 13 9 5 3 3
2 1 4 2 0 1 1 2 4 4 5 6 7 6 3 1 1 2 2 1 3 3 4 2 0 4 3 3 7 6 1 1 2 2 3 4 5 6 6 5 4 4 4 4 4 5 6 8 10 12 13 13 14 14 14 15 15 14 14 13 13 12 10 10 9 8 7 7 6 5 5 5 4 5 5 5 5 5 5 4 5 6 6 7 9 10 12 12 12 13 15 16 13 10 7 4 4
0 1 4 2 2 3 2 1 4 5 4 9 7 5 5 2 2 1 3 3 4 4 2 1 2 3 2 1 3 4 2 3 4 4 3 4 4 5 6 7 7 6 5 5 5 6 6 8 9 11 12 13 12 12 13 13 15 16 16 14 13 13 12 11 11 10 9 8 8 7 6 5 5 5 5 7 7 7 6 6 6 6 7 8 9 10 12 12 11 13 14 15 13 11 8 5 5
1 1 4 2 3 4 4 3 4 5 4 9 7 6 6 4 2 0 2 3 1 3 2 1 2 4 3 3 1 3 5 5 5 6 6 5 5 5 6 7 8 8 7 6 6 6 7 7 8 9 11 12 11 10 11 11 13 15 16 16 14 14 13 12 12 12 11 10 9 8 6 5 6 6 6 8 8 9 8 7 7 7 7 7 9 11 13 13 13 14 14 14 14 12 10 7 5
2 2 4 3 4 4 5 5 3 2 6 9 9 6 5 5 3 1 1 2 2 2 2 1 3 4 4 4 5 7 8 8 8 7 8 8 5 4 7 8 9 11 10 9 8 7 8 8 8 8 9 10 11 12 11 11 13 14 15 17 16 15 14 13 12 11 11 11 10 9 7 6 7 7 7 8 7 9 10 10 9 8 8 9 11 13 14 14 14 15 15 13 14 13 11 9 6
2 3 4 3 2 2 3 4 2 2 5 8 8 4 3 3 4 1 2 4 4 3 4 2 3 4 6 6 7 9 9 9 8 7 8 10 8 7 10 10 10 12 12 12 12 10 10 10 10 10 9 9 10 11 11 11 13 13 13 15 16 16 16 13 12 12 11 11 11 10 9 8 7 7 8 8 7 8 9 11 10 9 10 10 13 15 15 14 14 15 14 13 13 14 12 10 9
2 2 3 1 2 3 2 3 3 2 3 6 6 3 1 0 3 1 4 4 4 5 6 6 4 3 5 7 7 7 5 5 5 6 7 8 10 10 11 11 11 12 13 13 14 13 12 12 12 12 11 10 10 11 11 10 10 11 13 14 14 14 15 14 12 12 11 11 11 10 9 9 8 8 10 10 9 9 9 10 11 11 11 12 13 14 14 13 14 15 13 12 12 13 14 12 12
1 3 3 2 5 5 4 3 4 4 3 2 3 3 2 1 1 2 3 4 6 5 4 6 5 5 3 7 6 5 3 2 2 4 5 6 8 10 11 11 11 12 12 13 14 14 14 14 14 14 13 12 11 10 11 9 7 8 11 12 13 12 13 14 13 11 11 11 11 10 9 10 9 9 11 12 11 11 10 11 12 12 12 11 11 12 11 12 14 14 12 11 12 13 15 14 13
1 3 2 5 3 3 4 3 3 3 3 2 1 0 3 1 1 3 3 6 6 2 5 3 4 4 4 7 5 4 3 2 2 2 4 5 6 7 9 9 10 10 11 12 13 14 14 14 15 16 15 14 13 11 10 10 7 7 9 11 12 12 12 13 13 12 12 12 12 11 11 11 10 10 10 10 10 9 9 10 11 10 10 9 8 8 10 12 13 13 12 10 11 14 15 15 13
2 1 4 5 1 2 5 3 3 2 2 2 2 3 3 1 3 5 6 6 2 4 4 4 3 4 6 6 4 3 2 1 2 2 2 2 3 4 5 6 7 8 8 9 9 11 11 12 13 15 16 16 14 12 11 10 8 6 7 9 10 10 10 12 14 13 12 13 12 11 11 11 10 10 10 9 9 8 8 9 9 8 8 9 7 6 8 10 10 10 9 7 11 14 14 15 15
2 3 4 3 2 2 4 2 1 1 2 3 3 3 4 5 7 6 6 6 2 4 5 6 7 7 6 5 5 3 2 2 2 2 2 2 2 3 3 4 5 5 5 6 7 7 8 9 10 11 14 16 15 13 11 10 7 6 8 9 8 9 10 10 13 14 14 13 13 12 12 11 9 10 10 9 9 8 9 9 9 9 8 8 8 7 8 9 10 7 4 6 11 13 12 14 15
4 1 4 2 1 0 2 2 2 2 4 4 3 5 7 8 6 4 4 6 8 9 8 8 8 8 7 6 5 3 4 3 3 3 3 3 3 3 4 4 4 4 5 5 5 6 6 7 7 8 9 13 15 14 12 8 5 6 8 9 8 10 11 11 13 14 15 14 14 14 13 13 12 12 12 11 10 8 9 9 9 9 8 9 10 10 10 10 11 9 5 8 11 12 12 13 15
3 1 4 2 1 3 2 3 4 5 6 5 5 7 10 8 5 6 5 8 11 10 8 9 8 7 8 6 5 5 5 4 4 3 3 3 3 4 4 5 5 5 5 5 5 5 5 5 6 5 6 11 15 14 13 9 8 8 10 11 11 13 14 13 13 13 14 13 12 14 14 14 13 12 13 13 13 12 11 11 11 11 10 11 12 12 12 11 11 11 9 10 9 10 11 11 14
1 2 2 1 3 4 4 6 7 7 7 6 6 10 10 6 6 7 7 11 11 8 8 8 7 7 7 6 6 6 6 6 5 4 4 4 4 4 4 5 5 5 5 5 5 5 5 5 5 5 6 10 15 16 16 15 13 13 13 14 15 15 14 14 12 12 14 14 13 14 14 13 12 13 13 13 14 15 14 13 14 15 13 13 13 11 12 11 11 12 10 9 9 9 8 9 12
2 2 3 5 6 6 6 7 7 7 7 9 8 10 5 4 5 5 8 13 12 8 9 8 8 8 8 7 8 8 6 5 5 4 5 6 6 7 7 6 5 5 5 5 5 5 5 4 4 5 6 10 15 18 19 17 16 16 15 15 15 14 13 14 13 12 13 14 13 13 12 12 11 12 13 13 14 15 14 13 11 11 11 12 11 11 12 11 11 12 9 9 11 10 8 8 8
2 3 6 8 8 8 10 9 8 6 6 9 10 9 4 5 5 5 9 12 11 9 9 10 10 9 10 10 10 8 6 4 4 4 5 5 6 7 8 8 6 5 5 5 5 5 5 5 4 4 6 10 14 18 18 16 17 17 16 16 16 14 13 13 14 14 14 14 13 13 12 12 10 9 10 11 13 12 11 11 9 8 9 10 11 11 12 12 12 11 9 10 10 9 9 9 8
3 4 6 6 7 10 11 9 7 7 5 6 6 7 8 10 7 6 10 11 11 10 9 10 11 12 12 11 10 7 4 4 4 5 5 5 6 7 8 8 7 6 5 5 5 5 5 5 5 5 6 9 12 14 16 18 18 18 17 16 15 15 14 13 13 13 14 13 13 12 11 11 9 8 8 8 9 9 8 9 9 9 9 10 10 10 10 10 10 10 10 9 9 10 11 10 9
4 4 4 6 8 7 7 6 5 7 4 6 6 6 8 10 10 9 9 11 12 11 9 10 10 11 11 10 8 7 6 6 6 5 5 5 6 6 7 6 6 6 5 5 5 5 5 5 5 6 7 9 10 12 14 17 19 18 16 15 14 13 13 12 11 10 9 9 8 7 7 7 7 7 7 6 6 6 6 7 8 9 9 9 10 9 9 9 9 10 10 10 11 13 13 11 10
4 3 3 5 6 2 8 7 6 7 5 6 6 6 6 6 10 9 10 11 13 11 11 11 10 10 11 10 8 8 8 8 8 7 6 5 5 6 6 5 5 6 6 6 5 5 5 5 5 6 6 8 9 11 12 14 16 16 13 13 12 11 10 10 8 7 6 5 5 4 3 4 6 7 7 5 5 6 6 7 8 8 8 8 9 9 9 9 10 11 11 11 12 13 13 12 11
4 4 4 4 4 2 7 8 6 3 4 8 7 6 6 5 9 9 11 12 12 10 11 11 10 10 10 9 8 8 9 10 9 9 7 6 5 5 6 6 6 6 6 6 5 5 6 6 6 7 7 7 8 9 10 11 12 12 10 10 10 9 8 6 5 5 5 4 4 3 1 1 4 6 6 5 5 5 6 7 7 7 7 6 6 6 7 8 10 11 10 11 12 13 13 12 13
5 5 6 4 5 4 3 6 4 2 5 9 10 6 6 3 9 9 11 12 11 10 10 10 10 10 9 9 9 9 9 10 10 9 8 6 6 6 6 6 6 6 6 6 6 7 7 7 7 7 8 8 8 9 9 10 10 9 9 8 8 7 6 6 6 5 5 5 5 4 3 2 2 3 3 3 2 3 3 4 5 6 7 6 6 6 6 8 10 11 11 11 12 12 12 13 14
4 5 5 6 7 6 4 3 5 4 4 7 10 9 10 3 9 10 11 13 12 11 11 11 10 10 9 10 9 9 8 9 11 10 8 7 7 6 6 5 6 7 8 8 8 9 9 9 9 8 8 9 9 9 9 9 8 8 8 8 7 7 6 7 7 7 7 6 5 5 5 4 3 3 2 2 1 1 1 1 2 3 4 4 5 6 7 8 9 10 11 11 12 12 13 13 13
4 3 3 5 6 7 8 3 4 5 5 7 9 10 13 9 8 12 12 14 14 14 13 11 10 10 9 9 9 9 9 10 12 11 8 7 7 7 7 6 7 9 10 9 9 10 11 11 10 10 9 9 9 9 9 8 9 9 9 8 7 6 6 7 7 7 7 7 7 6 6 5 5 5 5 4 4 4 4 4 4 4 5 5 6 6 7 7 7 7 8 10 12 12 13 13 14
6 6 6 7 6 7 7 1 4 2 4 8 11 11 12 13 9 11 14 15 15 15 13 11 10 9 9 8 9 10 10 11 14 11 8 8 9 9 9 8 8 9 10 10 9 10 10 9 9 10 10 10 9 9 9 9 8 9 8 8 8 7 7 7 5 5 5 7 7 6 5 4 3 4 4 4 4 4 4 4 4 5 6 6 7 7 7 7 7 7 8 10 11 12 12 13 14
6 7 8 9 8 8 6 1 4 1 4 9 11 12 14 14 13 10 14 16 14 15 14 13 11 10 9 9 9 11 11 13 13 10 9 10 10 11 11 11 10 9 9 10 10 10 10 10 9 10 10 11 11 9 9 9 8 8 8 9 9 9 8 7 8 8 9 8 8 7 7 7 8 7 6 5 4 3 2 2 1 1 1 2 2 2 3 4 5 6 7 8 9 10 10 10 10
8 8 8 8 8 9 6 3 4 3 3 9 12 13 16 14 14 15 11 14 14 17 17 15 14 11 10 10 11 12 13 15 13 11 11 11 12 13 13 12 11 11 10 10 10 10 10 11 11 10 10 11 11 10 9 9 10 10 10 10 11 12 13 13 14 15 15 15 13 13 12 13 13 12 12 11 10 9 8 7 7 7 7 7 7 6 6 5 4 4 4 5 6 7 7 8 8
9 7 7 8 6 8 5 5 5 3 3 7 10 11 15 14 14 17 14 16 16 17 17 15 14 14 12 13 14 14 15 15 13 13 12 12 13 14 14 13 12 12 12 12 12 11 12 12 12 11 11 10 10 10 10 11 13 14 14 15 16 18 18 17 17 18 17 16 15 15 14 14 13 13 13 12 11 11 10 10 10 10 10 10 10 10 10 9 9 8 8 8 8 10 10 11 12
8 7 7 7 6 6 5 4 4 5 5 6 9 9 12 14 14 17 15 13 10 9 11 11 12 13 12 14 16 15 16 15 14 13 13 13 15 16 15 14 13 12 14 14 14 13 14 14 13 12 11 10 10 11 13 14 16 17 18 20 20 20 20 19 18 18 17 15 15 14 13 13 12 12 12 11 10 10 10 10 11 11 11 11 11 11 11 11 11 11 11 11 11 12 14 15 15
9 10 9 8 8 8 7 3 2 5 8 7 7 9 10 12 14 14 6 4 3 5 8 10 13 14 13 14 17 15 14 14 14 13 13 15 16 17 16 15 14 14 15 16 15 15 15 14 14 13 12 13 13 14 16 17 19 20 20 21 20 20 19 18 17 16 15 14 13 12 12 11 10 10 10 9 9 9 10 10 10 10 10 10 10 10 11 12 12 12 13 13 13 13 14 15 16
8 10 12 12 12 11 10 6 2 5 7 5 5 7 6 4 8 8 6 5 6 8 11 13 16 17 16 15 15 15 15 14 13 13 14 17 18 18 16 16 16 15 16 16 15 15 15 15 15 15 15 17 18 19 19 20 20 20 20 19 18 18 17 16 15 14 13 12 11 10 10 9 8 8 8 8 8 9 9 9 10 10 10 10 11 11 11 11 12 13 13 13 14 14 14 14 15
7 4 7 12 12 11 11 8 4 5 5 2 4 7 6 3 6 5 7 7 9 10 12 15 17 17 17 15 13 15 17 16 15 14 16 19 19 18 17 18 17 17 17 17 16 16 16 17 17 18 19 19 20 21 21 20 19 18 17 16 15 15 14 14 13 12 11 10 9 9 8 8 8 8 8 8 8 8 9 9 10 10 10 11 11 11 12 12 13 13 13 13 14 14 13 14 14
5 2 0 6 8 9 9 8 7 6 6 2 6 6 7 8 10 6 7 7 9 11 12 14 16 17 17 16 14 15 17 18 17 16 18 20 19 20 20 19 19 19 19 19 19 19 20 20 20 21 21 21 21 20 19 18 17 16 14 13 13 12 11 11 11 10 9 8 8 8 8 7 8 8 8 8 9 9 9 10 10 11 11 11 12 12 13 13 13 13 13 13 13 14 14 14 14
2 4 2 1 2 5 6 7 7 6 6 6 7 6 6 8 8 7 8 9 12 13 13 14 16 17 17 17 16 16 17 17 17 19 20 21 22 22 22 21 21 21 22 22 22 22 23 23 23 23 22 22 21 19 18 17 16 14 12 11 10 11 10 9 10 9 8 8 7 7 7 7 8 8 8 9 9 9 10 10 11 11 11 11 11 12 12 12 12 13 13 14 14 15 15 15 15
2 5 4 4 1 1 2 5 5 5 7 8 8 9 7 8 6 7 7 8 12 10 7 10 16 17 17 17 17 17 17 18 18 21 22 23 24 24 24 24 24 24 25 25 25 25 25 24 23 23 22 22 21 20 18 16 15 13 11 9 8 9 9 8 8 8 8 7 6 6 6 7 7 8 8 8 9 9 9 9 9 10 10 10 11 11 11 11 12 13 13 14 15 15 15 15 15
7 5 3 2 2 2 2 4 3 5 9 10 12 14 10 7 4 6 6 3 5 4 4 8 13 17 18 18 19 19 19 21 22 23 24 25 26 26 26 27 27 27 27 27 27 26 26 25 24 23 22 22 21 20 18 16 14 12 11 9 8 8 8 7 7 7 7 6 5 6 6 6 7 7 7 8 8 8 8 8 9 9 10 10 10 10 11 12 12 13 13 14 14 14 14 14 14
5 4 3 3 3 2 3 5 4 7 10 5 8 13 14 9 4 5 4 3 3 2 5 8 12 16 18 18 19 20 21 24 25 26 27 28 28 28 29 29 29 29 29 29 28 27 26 25 24 23 22 21 20 19 17 15 13 12 11 10 8 7 7 7 6 6 6 5 5 5 5 6 6 6 6 7 7 7 7 8 8 9 9 9 10 10 11 12 12 13 13 13 13 14 14 14 14
5 5 6 5 4 3 5 5 5 8 6 1 2 7 10 11 8 9 5 4 5 3 5 7 13 17 18 18 19 20 23 26 27 28 30 31 31 32 32 32 32 31 30 30 28 27 26 25 24 22 21 20 18 17 16 14 13 12 11 9 8 7 6 6 6 5 5 5 4 4 4 4 4 5 5 5 6 6 7 7 7 8 8 9 10 11 11 12 13 13 13 14 14 14 14 15 15
9 8 7 7 5 6 8 7 7 7 3 2 2 3 6 7 7 13 10 4 8 6 7 7 12 16 17 18 19 21 24 27 29 31 32 34 34 35 35 34 34 33 32 30 29 27 26 24 24 22 21 20 18 17 16 14 13 12 10 9 8 7 6 6 5 5 5 5 4 3 3 3 3 3 3 4 4 5 5 6 7 8 9 10 11 12 12 13 14 14 14 15 16 16 17 17 18
11 8 7 8 6 7 8 6 7 5 1 2 3 4 5 4 2 3 3 7 8 7 7 8 11 13 16 17 18 22 26 29 31 34 35 36 37 36 36 36 35 34 32 31 29 28 26 25 24 22 20 19 18 17 16 15 13 12 10 9 8 7 6 6 5 5 5 4 4 3 3 2 2 1 2 2 3 4 5 6 7 8 9 11 12 13 13 14 15 15 17 17 18 19 20 21 22
7 6 8 9 6 6 7 3 1 2 2 2 5 4 5 3 2 5 6 6 7 7 7 9 11 12 15 17 18 23 28 31 34 36 36 37 38 38 37 36 35 34 33 31 30 28 27 25 24 22 20 19 18 17 16 15 14 12 11 9 8 7 6 6 6 6 6 5 4 3 2 2 1 1 1 3 4 5 6 7 8 9 10 11 12 13 15 16 17 18 19 20 21 21 22 23 23
5 7 9 4 1 3 6 2 2 0 7 5 6 5 5 3 3 6 7 5 7 7 7 9 11 13 14 15 18 24 29 33 36 37 38 39 39 38 38 37 36 35 33 32 31 29 27 26 24 22 21 20 19 18 17 16 14 13 11 10 9 8 7 7 7 6 6 5 4 3 3 3 2 3 4 4 5 6 7 8 9 10 11 12 13 15 16 17 18 19 19 20 20 21 22 22 23
4 6 6 3 3 3 4 5 2 4 10 6 6 9 7 6 5 5 7 6 7 8 8 9 11 13 14 15 19 24 28 33 37 38 39 39 40 39 38 37 36 35 34 33 31 30 28 26 25 23 21 20 19 19 18 17 15 14 12 11 10 9 9 8 8 7 6 5 5 5 4 4 4 5 5 6 7 7 8 9 10 11 12 13 14 14 15 16 17 18 19 19 20 20 21 22 23
1 1 1 3 3 5 5 5 5 7 10 7 7 11 9 8 6 6 9 11 11 11 10 10 11 14 16 17 19 22 26 33 38 39 40 40 40 40 39 38 37 35 34 33 32 31 29 27 25 24 22 21 20 20 19 18 16 15 13 12 11 11 10 10 9 8 8 7 7 7 7 7 7 7 7 8 8 9 10 11 11 12 12 13 14 14 15 16 17 18 19 20 20 21 22 22 23
1 2 3 3 2 4 5 6 4 6 8 8 8 9 7 8 9 11 14 14 13 14 12 11 13 17 19 20 22 25 29 36 40 42 42 42 41 40 40 39 38 37 35 34 33 32 30 28 27 26 25 23 22 21 20 18 17 16 15 14 13 13 12 11 11 10 10 9 10 9 9 9 9 10 10 10 10 11 11 11 11 11 12 13 14 15 15 16 17 18 19 20 20 21 21 22 22
6 6 8 6 3 1 3 5 5 5 7 7 8 8 5 3 6 12 16 16 15 15 12 10 13 18 19 20 25 31 34 38 42 43 43 43 42 41 41 40 39 38 36 35 34 33 31 30 29 28 26 24 23 22 20 19 18 18 17 16 15 15 14 14 13 12 12 12 12 11 11 12 12 12 12 12 12 11 11 10 10 10 11 12 14 14 15 16 17 18 19 19 20 21 21 21 22
9 9 10 10 8 5 4 8 7 5 6 6 6 9 6 1 1 3 8 10 11 13 13 11 14 19 20 22 27 33 37 38 41 44 44 44 44 43 42 42 41 39 38 37 36 34 33 32 30 29 27 25 24 23 21 21 20 20 19 18 18 17 16 16 15 14 14 14 14 14 14 14 14 14 13 13 12 11 10 9 9 10 11 12 13 14 14 16 17 18 19 20 21 21 22 22 22
Wind_Direction
285 301 48 24 75 62 172 264 246 194 266 101 96 131 88 44 97 120 96 94 111 67 31 28 12 350 339 357 40 56 46 33 27 30 79 57 34 82 159 16 44 144 173 183 180 176 182 189 181 173 177 181 180 179 180 182 180 178 177 169 149 207 269 118 95 89 97 101 113 120 112 101 97 85 72 61 47 36 31 31 47 62 46 43 43 22 15 21 19 10 6 9 14 11 10 10 10
129 118 106 88 108 25 269 245 255 144 172 114 84 73 100 140 155 73 61 51 57 55 29 23 9 0 352 332 324 76 58 48 51 62 82 64 45 56 140 24 45 145 171 178 179 177 179 190 187 176 177 182 180 182 186 187 188 181 188 188 184 203 156 151 129 124 128 120 129 134 121 108 101 85 72 56 39 26 24 27 47 70 64 62 40 11 352 351 355 355 352 347 350 350 348 350 353
115 112 117 104 129 272 261 236 257 173 148 111 99 88 125 153 91 67 59 54 53 42 49 27 22 15 291 194 82 62 76 61 54 69 77 71 75 40 118 58 39 147 168 174 180 176 176 192 192 185 179 181 181 183 189 190 195 193 204 208 223 224 189 197 143 139 145 137 142 138 123 109 100 86 68 41 27 21 25 42 68 89 93 91 339 335 326 336 341 346 351 340 333 335 332 335 337
105 113 122 118 228 228 239 242 276 261 123 106 114 112 128 83 83 79 72 63 52 27 43 215 129 39 327 63 58 58 81 67 53 68 73 65 119 124 126 106 64 150 167 170 176 172 180 199 195 193 189 184 184 185 190 191 197 202 211 227 246 249 209 203 128 137 140 140 143 138 120 103 95 79 53 27 22 22 30 66 104 120 126 214 292 315 323 343 349 343 343 328 321 322 322 326 329
95 106 122 146 257 225 273 273 282 296 59 71 114 121 112 85 92 93 88 75 51 22 20 310 84 82 33 40 16 28 53 61 61 63 81 66 115 131 131 130 118 147 166 169 171 171 192 208 197 194 196 191 189 189 193 195 200 206 216 233 244 185 180 138 123 151 139 138 138 130 107 88 83 62 37 27 26 29 40 82 117 147 169 236 299 325 337 351 356 343 328 314 311 312 316 321 326
87 90 111 175 275 286 266 225 212 83 43 8 99 115 107 93 93 96 104 98 68 36 25 336 26 104 99 60 37 39 21 48 66 40 95 95 123 134 131 136 136 145 165 172 167 176 211 218 201 195 197 195 193 196 195 199 205 212 218 224 226 182 181 151 139 167 138 120 105 103 92 78 72 45 30 31 36 38 51 84 96 152 200 280 316 335 343 349 350 340 329 318 311 310 314 320 325
99 100 136 200 192 237 259 182 92 103 58 4 85 109 103 95 92 123 134 124 111 72 43 20 6 296 115 102 73 48 18 58 106 112 104 105 126 132 130 137 142 145 167 175 164 188 220 218 202 194 199 196 193 202 199 201 209 217 221 217 216 195 193 194 149 169 141 108 93 90 84 75 63 33 25 34 40 41 56 75 70 113 254 309 327 337 341 346 347 340 335 331 325 318 315 319 323
112 102 217 242 184 224 272 118 72 79 88 43 76 84 86 95 101 143 127 102 84 85 59 57 339 285 104 114 92 54 25 77 119 127 111 115 126 129 130 139 149 152 167 178 174 200 218 209 203 196 199 199 193 202 201 204 211 220 226 220 214 207 210 218 165 156 157 121 109 100 81 62 57 29 17 28 37 38 53 71 64 51 291 308 329 335 340 346 348 344 342 340 340 335 324 318 324
113 119 241 247 223 204 237 118 92 86 112 115 104 86 83 93 103 141 109 101 83 78 56 45 333 314 109 109 96 73 33 74 110 129 124 121 126 130 129 139 153 160 169 177 184 207 214 201 207 202 197 198 194 200 200 206 212 218 225 222 218 219 227 234 210 158 180 160 132 118 95 55 32 9 6 10 27 38 51 73 75 14 303 309 322 326 336 343 347 349 348 345 344 344 337 322 328
222 217 264 257 234 187 190 151 120 117 123 130 120 106 106 108 119 110 86 107 102 85 65 27 351 29 114 105 95 78 33 71 110 129 134 128 128 129 127 134 146 160 170 178 189 204 213 203 206 206 201 197 196 200 197 203 211 214 219 220 221 226 235 239 238 224 198 181 158 140 136 187 321 328 343 343 2 34 50 80 95 285 293 304 309 317 329 337 344 350 349 346 342 340 337 313 311
218 200 281 262 221 194 194 167 139 132 132 144 134 113 112 124 149 143 92 106 115 108 84 334 15 61 144 104 91 81 45 70 102 123 143 142 128 122 121 127 136 152 167 179 190 197 206 203 206 208 206 201 197 202 200 201 208 212 216 218 221 227 240 244 244 251 214 199 188 182 204 239 262 276 290 304 315 5 39 125 246 274 284 301 305 313 322 330 341 347 347 347 343 336 319 263 208
242 176 219 245 228 211 167 155 150 139 141 165 152 122 111 147 191 159 131 108 129 139 86 11 24 43 235 133 115 110 51 60 115 154 170 181 171 151 132 126 135 142 155 171 188 196 201 201 205 207 209 209 202 201 202 202 206 212 215 216 221 225 234 240 237 232 218 209 209 208 206 230 248 254 272 284 286 303 302 243 279 289 299 309 312 318 320 328 342 345 345 346 345 337 306 245 208
276 187 226 248 296 320 96 138 148 147 163 172 141 122 129 169 195 94 84 124 159 144 73 36 38 317 285 131 131 134 19 31 146 229 208 219 217 202 189 172 163 154 162 169 184 194 201 203 206 208 208 211 209 206 205 204 205 210 213 215 220 225 227 231 231 226 219 213 214 220 213 217 235 249 259 271 283 286 287 279 281 294 306 314 314 318 321 332 344 344 342 343 345 342 313 252 214
275 298 258 253 354 258 176 147 155 183 177 132 113 123 156 154 85 47 324 237 98 62 46 53 354 294 281 172 150 147 255 304 283 258 234 239 231 226 216 208 201 188 189 189 196 194 199 204 205 210 209 210 213 213 211 208 207 208 211 215 219 223 228 233 236 233 228 222 217 221 223 220 231 251 261 266 276 283 289 286 286 294 302 308 307 313 318 327 342 343 340 341 344 345 330 278 233
127 290 263 240 205 201 192 185 174 212 167 117 115 138 156 109 75 78 338 348 71 71 44 132 247 294 320 321 151 152 231 265 274 263 256 255 245 247 231 227 224 213 217 210 210 209 209 208 207 212 210 210 212 217 219 215 215 213 212 214 218 222 227 235 241 243 241 236 228 226 229 228 233 245 262 270 274 281 286 285 289 290 298 305 304 309 314 320 336 342 338 339 343 345 341 310 258
133 229 245 217 207 199 184 190 193 219 140 115 125 143 166 136 84 17 28 350 53 107 82 113 253 285 315 326 224 213 256 265 270 266 262 261 266 275 256 242 236 231 232 230 229 226 225 224 221 220 216 215 210 212 219 221 222 223 219 215 218 222 226 233 240 246 250 250 245 240 238 238 241 245 259 267 271 277 280 282 287 287 295 300 299 305 311 318 329 337 337 338 342 343 343 332 285
161 232 243 213 203 193 171 180 189 166 115 119 132 151 191 151 135 285 1 274 249 138 128 252 243 236 245 253 259 265 274 276 273 267 257 257 261 268 267 259 245 238 234 236 241 239 241 240 236 234 230 229 225 215 210 215 221 224 226 221 220 223 227 231 236 247 256 260 260 257 254 252 251 255 262 266 269 272 274 276 279 284 290 290 292 301 307 313 322 332 335 333 339 342 342 339 315
223 243 239 226 190 158 155 171 148 84 121 129 134 145 219 158 148 191 272 207 207 224 181 216 232 204 229 243 268 278 277 275 270 261 248 247 244 241 257 260 254 249 240 237 239 242 246 247 244 242 238 237 239 230 217 214 216 219 224 225 224 227 231 234 239 249 258 262 263 259 256 255 253 258 264 267 270 269 269 271 275 281 287 290 292 299 305 310 318 327 331 331 335 340 339 341 335
280 280 243 265 72 79 65 109 77 37 115 126 129 124 225 195 110 159 259 203 204 247 178 168 188 181 254 267 283 292 283 272 264 262 250 244 245 245 253 258 258 255 249 245 243 244 245 248 248 246 244 238 237 236 231 223 215 215 216 219 226 232 236 240 245 249 254 255 257 257 252 251 248 251 258 262 267 271 272 271 275 279 283 289 292 300 306 312 322 324 326 333 335 338 343 346 345
314 289 257 80 80 87 85 101 78 49 69 119 136 119 240 261 106 198 271 266 241 251 140 164 164 128 271 290 304 318 334 310 288 278 268 257 250 247 250 253 256 256 254 253 250 250 249 250 250 248 248 244 239 236 235 229 211 212 211 210 219 229 234 237 239 240 243 246 252 255 250 250 249 249 256 259 262 268 272 270 271 275 279 288 299 309 312 317 327 326 326 335 339 345 348 347 346
311 303 346 80 103 112 106 104 82 62 32 345 26 324 264 210 190 230 262 279 249 166 90 135 140 131 251 285 301 312 344 351 337 304 283 268 257 251 250 250 251 252 253 255 256 257 256 255 254 251 249 245 243 235 232 233 215 205 209 208 214 220 224 231 233 233 237 239 244 249 248 250 251 251 257 259 259 261 264 267 270 274 278 288 304 311 310 316 326 330 334 339 345 349 350 347 343
279 41 51 81 81 100 115 98 81 79 0 325 296 286 303 329 257 247 245 270 279 117 139 196 229 236 245 259 263 276 296 318 331 309 292 266 257 253 249 250 249 247 247 252 255 258 261 260 258 254 249 244 241 235 230 231 219 201 212 217 214 214 220 230 233 233 234 235 237 239 242 245 247 247 252 257 258 256 252 257 265 274 284 291 294 292 294 305 316 325 330 331 335 340 344 344 339
285 105 95 89 24 54 118 127 145 139 280 254 269 296 318 297 268 257 250 255 235 187 209 232 256 248 230 234 241 254 258 260 262 255 266 257 255 256 254 255 252 251 249 252 256 261 265 264 261 256 249 240 235 232 227 226 215 195 213 220 213 211 214 226 232 230 230 235 236 233 233 232 231 233 238 245 248 252 256 256 262 268 276 278 274 268 267 279 289 289 286 304 320 329 338 339 333
286 121 123 113 50 85 131 166 224 227 254 252 283 299 279 271 270 275 251 231 236 241 246 252 256 238 219 226 235 254 264 259 249 245 252 255 266 270 272 272 267 267 264 263 260 262 264 264 264 257 247 233 226 225 220 214 201 196 213 216 214 213 212 222 230 228 229 236 235 233 240 239 234 236 238 236 233 239 249 252 256 257 259 257 257 257 256 267 274 269 283 303 310 321 329 331 327
267 343 120 131 202 217 193 201 232 236 249 255 262 267 262 256 262 277 246 228 244 247 244 244 239 216 208 222 235 250 267 271 269 270 269 266 271 270 273 274 271 270 267 265 260 259 258 257 261 255 238 219 213 213 211 202 188 198 207 205 209 212 213 221 229 229 231 241 242 238 247 247 245 250 247 235 232 235 238 245 249 245 244 246 249 251 251 262 261 258 288 300 301 318 321 322 320
46 26 121 210 226 225 223 229 236 231 239 237 238 252 253 236 246 262 224 227 245 234 225 224 207 199 204 221 236 247 260 270 281 292 297 300 300 291 285 278 272 268 263 263 259 256 251 244 246 241 223 211 203 202 211 210 202 208 210 207 211 215 216 219 224 231 234 244 251 249 250 249 253 259 250 236 240 246 244 249 250 241 239 241 243 245 247 253 252 255 277 287 289 305 306 316 319
40 335 274 257 251 244 231 238 233 220 233 222 230 259 246 176 231 240 196 220 233 208 205 201 184 193 209 221 233 243 249 258 272 282 292 299 304 306 302 295 286 274 261 257 254 251 250 241 234 221 211 206 199 201 210 210 207 214 212 212 218 220 222 221 222 230 235 241 247 249 251 250 254 254 245 238 245 251 246 248 254 249 249 249 244 250 259 260 256 258 264 268 282 297 293 303 316
353 306 285 251 239 241 227 231 223 208 230 216 226 262 232 156 221 214 179 203 204 181 187 191 191 201 212 222 230 236 242 252 262 266 272 278 287 293 293 293 289 277 261 252 250 247 247 241 233 216 204 201 199 202 204 199 203 212 208 210 217 219 226 228 225 226 232 241 247 250 252 249 250 250 247 246 246 245 241 245 260 270 269 263 255 260 269 264 256 257 259 263 275 285 280 287 299
306 285 291 266 245 243 220 209 206 207 218 190 206 260 237 206 199 167 174 188 174 168 178 185 199 210 217 225 231 241 255 263 260 255 260 265 275 278 275 278 274 266 255 246 242 236 236 234 229 207 192 198 201 201 198 194 201 210 210 212 216 217 223 229 229 230 236 245 252 255 252 246 248 254 256 258 255 248 247 254 264 275 274 265 259 262 265 253 247 252 256 261 263 264 271 281 289
287 254 279 293 272 242 181 160 178 200 189 162 188 266 250 202 164 147 175 184 169 173 180 183 200 214 223 228 237 259 271 273 271 258 258 259 267 270 264 257 246 241 233 231 226 216 213 212 217 203 184 189 196 199 199 199 203 210 213 215 219 214 215 224 229 234 240 241 243 245 240 234 237 241 237 240 251 252 258 263 262 265 263 258 256 260 262 249 245 254 256 255 254 262 275 281 282
268 261 243 263 274 201 137 148 176 186 171 168 199 263 263 159 139 153 173 175 172 180 184 183 193 207 224 233 240 258 265 268 270 264 262 261 260 254 247 236 219 214 207 208 205 195 190 187 193 190 179 180 184 191 198 200 204 211 210 208 212 209 212 224 226 223 225 221 216 223 229 225 227 228 228 240 261 267 269 265 261 258 256 258 262 267 267 256 248 250 252 257 263 275 285 283 282
231 256 253 224 242 189 141 152 175 182 158 183 205 252 254 150 138 163 168 174 181 188 190 186 190 202 220 233 238 251 258 259 259 260 260 260 258 238 227 221 205 197 189 188 185 172 171 175 175 173 173 175 173 177 188 194 199 204 201 201 207 212 219 215 197 197 203 200 191 198 214 216 220 225 240 262 272 272 274 271 268 266 267 271 275 274 268 264 263 262 264 273 279 284 288 288 287
210 230 265 249 243 252 172 144 160 160 144 191 214 253 277 143 138 167 172 180 191 198 200 192 194 203 212 224 234 245 254 256 251 251 254 255 252 236 222 213 195 180 171 170 167 158 155 157 160 164 167 170 171 173 182 190 191 191 192 195 193 199 207 182 163 170 183 187 184 186 193 197 200 205 228 245 253 266 278 277 271 274 281 284 284 281 278 282 285 284 281 279 279 281 285 288 288
218 205 247 262 254 260 256 154 138 163 179 215 219 237 269 230 143 168 185 186 194 210 212 202 201 202 207 220 233 239 242 250 248 243 247 249 246 234 221 210 188 169 161 158 153 149 147 149 157 165 166 168 172 175 180 183 178 177 180 180 178 186 194 180 174 175 179 188 193 194 190 190 206 211 216 219 221 254 275 287 279 286 290 283 279 283 289 290 287 283 277 276 279 282 285 286 285
283 246 259 275 251 245 259 244 135 172 210 236 231 232 256 252 176 170 189 195 200 215 218 210 206 199 207 221 228 230 229 238 245 245 246 243 235 225 213 204 189 168 156 153 150 148 148 153 158 161 162 161 159 158 163 167 167 174 180 181 188 188 180 182 189 195 198 201 204 207 203 206 225 234 241 252 264 271 268 270 272 276 278 276 278 282 290 290 284 281 277 280 284 287 293 295 295
311 298 291 291 272 259 266 253 107 163 241 248 251 252 258 260 233 181 180 193 203 216 219 212 205 200 206 211 218 228 227 234 245 247 244 235 222 214 204 198 189 168 155 152 148 147 149 152 153 152 152 147 142 146 151 159 169 181 186 183 183 175 170 178 183 186 192 195 199 202 199 192 194 208 226 247 263 270 267 263 267 273 274 278 281 280 282 279 280 284 284 289 291 296 300 298 301
295 290 281 275 270 269 268 163 111 112 258 256 258 264 265 265 263 231 191 188 201 213 214 212 207 204 205 201 213 225 224 234 247 247 238 225 209 204 199 194 184 166 159 153 146 150 152 150 148 149 151 144 141 145 150 159 168 171 170 169 167 158 151 149 132 117 113 121 132 132 128 119 113 112 108 103 96 88 83 78 55 26 3 354 348 322 310 298 301 305 306 310 312 314 314 313 315
266 272 274 268 261 268 266 166 133 136 234 265 267 268 268 262 266 263 217 184 203 213 215 219 211 202 202 204 216 224 227 236 242 240 231 217 203 197 193 191 184 170 164 155 149 150 148 146 144 143 146 142 139 140 141 147 148 144 143 141 136 129 122 118 113 107 104 104 105 106 105 102 99 96 92 88 84 81 78 76 72 66 63 60 60 55 50 44 32 22 3 0 358 355 357 358 358
257 258 261 263 260 270 260 159 149 180 219 271 277 272 272 266 263 264 234 201 210 216 217 222 207 196 197 204 213 217 225 234 235 235 228 210 201 194 189 189 186 174 164 158 157 154 150 151 151 148 145 141 137 132 131 131 130 129 127 123 120 117 115 113 110 106 104 102 99 96 92 88 85 80 77 74 70 68 65 64 60 57 55 54 55 54 54 52 52 52 47 44 35 27 24 20 22
246 243 247 253 249 258 254 173 157 203 228 276 290 282 274 270 260 256 238 208 200 196 202 208 195 192 195 204 213 214 219 226 226 228 221 206 198 192 187 186 185 177 166 164 166 162 160 160 159 157 150 145 139 131 129 126 125 126 123 120 118 116 113 110 107 102 99 96 92 88 83 80 77 74 71 66 62 58 55 54 51 49 47 46 47 45 44 42 42 42 41 43 39 34 27 23 25
238 233 237 249 249 245 249 240 175 224 234 243 271 282 273 261 249 243 219 153 163 181 201 211 204 205 202 202 208 208 209 215 218 219 213 204 197 191 187 183 182 179 171 170 172 169 167 165 163 161 155 148 142 135 131 128 126 126 123 120 118 114 110 108 105 101 100 96 92 88 84 82 77 72 69 62 58 54 50 48 46 44 41 40 38 35 35 35 34 33 34 34 33 36 32 24 23
250 231 225 239 255 257 258 269 285 276 260 198 212 272 279 250 238 223 153 157 207 195 208 218 211 208 205 202 202 200 199 200 207 210 204 201 196 190 185 180 180 179 177 177 176 173 170 167 163 159 153 146 141 136 133 130 128 126 122 120 117 113 111 110 109 107 105 101 96 93 86 83 78 71 68 61 57 52 49 45 42 40 36 35 33 33 34 33 32 30 31 32 30 34 35 29 27
264 246 216 230 253 262 263 267 259 274 289 156 183 261 282 276 260 223 156 186 204 188 207 214 204 201 199 198 193 196 204 201 198 200 200 200 194 187 182 178 178 177 177 177 175 172 168 163 158 153 147 141 136 133 131 129 127 124 121 118 116 116 116 115 114 112 109 105 100 96 88 83 75 68 65 60 57 52 48 45 40 38 35 35 35 34 33 33 33 31 30 30 29 29 28 28 30
259 16 337 226 248 259 256 257 248 261 291 227 192 240 276 273 267 241 176 199 216 202 206 205 199 198 192 190 186 191 206 207 202 200 199 197 190 184 180 176 175 173 173 172 169 166 160 157 152 147 142 137 133 130 128 127 125 122 120 119 119 120 123 122 121 118 112 107 101 95 88 82 74 67 63 59 56 51 46 43 40 38 35 35 34 31 32 34 33 32 30 28 27 25 24 25 26
248 62 37 186 270 276 259 253 251 260 276 253 209 204 253 265 258 231 198 224 245 229 211 196 192 192 186 184 181 186 201 205 202 199 196 191 185 181 176 172 172 170 168 165 162 159 155 152 148 145 141 137 135 132 130 129 126 124 121 123 128 129 130 129 126 123 114 109 104 95 88 81 75 67 60 57 54 49 45 42 40 37 34 32 31 30 31 31 28 27 25 23 23 22 21 22 19
143 114 87 80 80 292 243 247 256 253 251 251 222 194 229 270 255 216 203 228 245 243 213 179 178 182 181 179 174 178 191 195 194 195 193 188 182 177 171 169 168 166 163 161 159 157 154 151 148 146 144 142 140 137 135 133 129 129 129 132 137 136 136 135 130 125 117 111 104 95 89 80 73 66 60 55 51 49 45 42 40 36 34 33 31 30 28 26 24 22 21 21 20 18 16 14 12
136 149 129 123 188 182 210 236 246 257 252 242 223 206 218 268 254 207 213 221 224 214 148 149 165 174 176 174 170 173 184 189 188 190 188 183 177 172 168 166 165 163 162 161 159 157 155 153 151 150 150 149 147 143 141 138 135 139 142 142 143 142 139 136 132 127 120 114 107 99 90 79 73 66 60 54 49 47 45 41 39 35 34 32 28 27 24 21 20 18 18 16 13 12 10 8 5
159 186 190 198 214 178 216 224 200 247 256 236 216 207 211 234 238 205 199 121 121 135 141 157 167 171 171 169 168 172 184 188 187 187 184 179 173 169 168 166 164 164 164 163 161 159 158 157 156 156 155 154 152 148 145 144 147 151 153 150 149 148 142 135 132 129 124 118 112 103 92 82 73 65 58 51 45 41 38 34 32 30 27 24 21 19 17 15 14 11 10 8 5 4 2 359 356
197 197 191 208 227 211 229 220 202 237 251 93 153 197 214 236 243 242 236 125 117 98 104 150 167 168 167 165 165 171 183 188 187 185 180 176 172 169 168 167 166 166 165 164 163 162 161 161 161 161 162 161 158 154 151 154 160 162 161 157 154 152 143 137 135 132 132 128 121 110 96 82 70 61 51 42 36 30 28 26 23 20 17 15 12 10 8 6 3 2 360 357 355 353 350 349 347
194 193 188 200 218 233 245 233 227 239 229 88 123 178 233 257 242 238 238 130 109 98 89 127 159 165 163 161 164 173 182 187 186 183 178 175 173 170 169 168 168 168 167 167 166 165 166 166 167 168 168 167 164 161 161 165 169 169 165 161 158 155 146 141 142 142 143 140 133 120 104 87 68 58 46 33 25 18 14 10 8 6 4 3 0 358 356 354 352 351 349 346 344 343 341 340 340
197 198 198 212 218 238 252 246 246 253 160 136 166 172 221 232 149 201 184 108 107 109 108 121 139 154 157 156 164 176 183 186 185 182 178 176 173 172 171 171 170 170 170 170 169 169 171 172 172 173 173 173 169 168 171 173 175 174 170 167 163 159 152 151 154 157 158 154 148 138 124 114 88 66 39 15 3 356 354 353 354 353 351 350 349 347 345 343 342 339 337 335 334 333 333 333 332
195 195 212 226 228 248 264 264 256 309 329 204 189 219 248 228 117 113 119 122 128 124 127 136 136 145 154 158 169 180 184 186 185 182 179 176 175 174 174 174 174 174 173 173 174 174 176 177 176 177 178 178 176 177 179 180 180 179 176 173 170 166 164 166 171 173 171 168 164 160 161 171 179 287 318 328 332 336 340 342 343 342 340 339 336 334 331 329 328 326 326 326 325 325 325 325 324
170 191 212 215 18 289 265 241 105 9 278 247 180 223 262 252 218 146 137 147 146 140 148 153 147 150 162 169 175 182 186 188 186 182 180 178 177 177 177 177 178 178 178 178 179 179 180 181 181 181 182 182 183 185 186 186 185 184 183 179 177 177 177 181 185 186 183 181 184 191 209 228 249 277 295 307 314 321 325 327 327 325 324 321 318 317 317 317 318 318 319 319 319 319 318 318 317
151 196 201 124 47 324 273 262 252 235 259 251 183 216 228 219 223 148 150 175 167 165 168 160 153 161 176 182 181 185 188 190 188 183 182 181 181 181 181 182 182 183 183 183 182 183 184 184 185 185 187 188 190 190 191 191 190 189 189 187 187 188 191 195 196 196 197 200 210 221 234 249 261 273 284 293 299 304 305 305 305 304 305 306 309 311 312 314 315 315 314 313 314 314 313 312 311
192 288 199 148 224 231 208 235 258 243 251 259 224 226 224 219 215 158 175 195 182 171 171 169 168 174 185 186 182 183 187 191 189 185 185 185 185 185 186 186 187 187 187 187 187 188 187 187 187 188 191 194 196 196 195 195 195 195 196 195 197 199 201 205 206 208 212 219 228 236 243 253 260 266 272 277 281 285 287 289 292 297 303 308 312 314 315 316 315 313 312 311 311 310 308 306 305
234 324 237 208 252 245 216 218 245 247 250 266 253 232 222 223 207 180 188 197 182 170 173 184 182 182 188 184 179 182 187 192 191 188 189 189 188 190 191 191 191 190 191 191 191 191 191 191 192 192 195 197 199 201 200 200 198 200 202 203 205 208 210 212 214 218 223 229 235 239 245 251 255 259 262 265 269 274 279 285 293 302 308 312 314 316 316 315 314 312 310 309 308 307 305 303 303
181 208 210 201 193 258 280 245 234 242 248 256 260 253 240 213 198 193 194 193 181 171 170 180 182 182 186 182 182 187 191 195 193 191 193 193 192 193 195 195 195 194 194 194 194 194 194 195 196 197 198 200 202 204 204 204 204 205 208 210 213 215 216 218 221 224 228 233 236 239 243 247 249 253 256 259 264 270 277 287 297 305 310 314 315 317 317 317 317 316 314 312 311 309 307 306 305
191 200 200 201 196 188 240 239 218 219 244 247 262 270 262 134 91 222 194 184 174 165 163 168 176 180 182 185 189 194 196 198 197 195 196 197 196 197 199 199 198 197 197 198 197 197 198 198 199 200 201 202 205 207 207 207 208 210 213 215 217 219 221 223 224 227 231 234 237 239 241 244 245 247 252 256 260 267 277 287 298 305 310 313 316 320 323 325 327 326 325 323 320 317 314 312 310